Wind_Speed
16 21 17 14 15 20 23 19 19 15 14 15 14 16 15 16 19 19 20 19 18 16 15 17 17 18 17 18 18 19 21 22 26 32 20 9 12 21 25 30 32 34 34
14 22 18 17 16 20 24 20 20 18 17 15 15 14 14 15 16 16 15 15 16 12 11 14 15 15 14 16 16 17 19 20 24 28 30 24 19 22 26 27 31 35 32
15 21 20 20 19 21 26 23 22 20 19 16 16 16 14 14 14 13 11 10 12 11 9 10 12 12 11 12 14 14 16 18 21 24 27 26 24 25 23 26 29 32 34
16 22 24 20 20 25 28 25 26 23 21 18 16 15 14 13 12 9 9 7 8 8 6 7 7 7 9 10 13 14 15 17 19 20 21 22 23 24 23 25 29 33 35
18 20 26 24 24 28 35 29 28 26 24 22 19 15 13 11 11 10 8 7 6 5 5 4 4 6 9 10 11 13 15 16 16 18 19 19 21 23 24 27 29 32 32
16 20 23 27 28 27 37 34 32 28 27 26 22 18 16 12 11 11 8 5 4 3 3 3 3 6 8 10 11 13 15 16 17 19 21 20 19 21 24 27 28 32 33
17 19 25 28 30 29 39 38 34 32 30 27 24 20 17 15 12 10 9 8 5 3 3 4 3 5 7 10 12 13 15 18 20 21 22 23 22 22 24 27 30 33 33
22 21 24 30 29 31 40 39 34 32 30 27 25 21 18 16 12 12 13 10 7 7 7 8 8 8 9 11 13 13 14 16 19 21 22 23 24 25 25 27 28 30 33
26 23 22 27 33 36 41 41 37 35 32 30 27 24 21 20 17 16 14 12 12 12 11 11 12 13 14 16 17 18 18 19 19 21 23 25 24 26 27 28 30 32 33
31 26 22 28 29 37 42 42 38 36 31 32 31 30 26 23 21 20 18 17 15 12 8 9 12 14 17 20 20 20 20 22 23 25 25 27 28 29 29 29 31 32 35
36 30 24 27 30 35 43 45 42 39 39 37 34 31 30 27 23 20 19 18 15 13 9 10 13 15 19 22 23 24 26 26 26 29 30 33 32 36 36 37 35 36 35
40 34 28 25 27 34 42 46 44 42 40 37 36 34 31 26 20 20 19 19 17 14 13 15 19 22 25 25 26 28 27 27 29 33 35 37 38 39 41 42 43 42 41
46 40 32 27 29 35 43 46 44 43 41 39 37 34 31 28 24 22 23 23 21 21 21 22 26 28 30 32 31 32 33 36 38 41 44 45 47 49 50 51 50 49 48
50 47 37 33 32 36 43 48 47 44 41 40 39 37 34 32 29 28 26 26 27 25 27 29 32 33 35 35 36 37 40 41 43 47 50 51 53 55 55 54 54 53 50
52 51 45 40 35 38 44 46 47 45 43 42 40 38 36 33 33 33 31 30 31 30 33 34 36 37 38 39 40 43 44 48 51 53 56 56 56 55 55 53 47 45 45
59 54 51 44 43 42 46 47 46 46 46 45 44 39 37 35 36 37 35 34 34 34 37 38 41 41 41 43 44 48 51 53 53 50 50 49 51 51 48 50 48 43 38
59 56 54 51 49 46 47 47 50 49 49 50 48 43 39 36 37 37 35 36 37 39 40 42 42 44 44 47 49 51 50 46 42 37 39 42 46 47 47 44 42 40 31
54 58 55 53 50 48 46 50 48 47 48 47 44 42 39 38 38 35 36 37 38 41 43 43 46 48 48 50 48 41 39 37 35 41 41 46 48 47 46 38 37 35 33
43 52 57 57 54 52 50 47 47 51 51 51 50 47 44 43 42 42 40 39 40 43 44 46 50 50 48 41 34 32 34 37 41 46 49 50 51 53 41 31 29 26 19
33 33 41 53 60 57 54 52 51 53 51 52 51 48 45 46 48 45 45 45 46 47 47 48 49 42 37 35 35 33 35 40 43 44 46 48 50 51 43 30 21 19 16
39 38 38 39 46 57 60 57 56 56 58 54 52 53 53 53 53 50 50 52 52 48 50 44 36 36 37 37 37 37 39 41 41 46 48 48 45 45 40 29 24 17 14
49 46 44 41 39 38 40 48 56 62 62 59 60 60 58 57 58 58 56 56 54 45 40 36 35 38 40 40 41 42 43 45 46 47 47 48 45 39 39 35 33 19 22
51 50 51 48 45 39 39 35 32 34 39 43 47 48 49 48 48 47 46 40 39 38 38 38 38 40 43 46 48 50 53 53 55 55 54 50 48 44 42 37 41 26 29
54 56 58 55 50 49 44 42 42 43 42 42 41 40 39 39 39 41 43 42 41 40 42 42 43 45 47 50 51 53 55 57 57 56 55 55 54 43 42 41 43 42 29
60 57 59 58 55 54 51 50 50 49 47 47 48 48 47 47 46 47 46 45 46 46 46 47 49 51 53 54 54 55 54 57 61 59 59 59 57 56 50 44 38 42 43
65 62 60 56 55 55 53 50 50 49 49 51 52 52 53 53 53 51 50 51 53 52 52 53 54 55 54 56 58 60 60 62 66 69 69 63 63 60 56 49 43 46 52
Wind_Direction
229 201 203 198 192 182 173 171 167 164 162 154 149 161 160 148 140 131 127 124 110 97 102 98 97 92 83 73 69 59 53 43 34 41 56 37 359 7 12 29 23 27 19
246 205 202 201 188 190 172 171 171 174 171 167 165 162 161 158 151 137 129 124 123 117 103 94 86 80 81 68 57 50 45 37 38 46 51 54 43 40 38 29 29 26 25
260 214 200 209 189 192 175 175 175 181 175 174 174 177 173 166 157 146 135 127 127 129 107 93 84 77 64 58 54 42 31 31 33 40 45 52 51 42 29 20 22 22 23
265 226 206 210 198 191 179 182 181 182 181 183 183 183 181 173 169 162 151 142 130 134 113 103 76 62 51 46 34 26 22 21 23 32 39 40 36 36 28 17 14 16 15
259 241 220 207 204 205 179 184 184 184 185 188 191 188 186 179 169 162 153 153 140 120 108 112 62 35 28 27 23 22 20 19 16 18 23 31 30 28 22 16 11 12 8
254 238 225 209 207 213 185 184 186 187 191 193 192 189 185 184 176 168 163 164 163 139 120 91 33 12 1 3 2 359 1 10 15 14 14 16 21 20 16 14 8 6 6
243 238 227 217 207 210 199 186 187 190 196 199 194 189 187 187 188 187 189 195 203 237 287 305 316 335 342 342 343 344 343 347 355 359 3 4 2 4 5 5 4 358 359
237 236 222 219 207 210 207 192 190 195 198 198 194 194 197 201 210 219 226 224 229 243 255 268 278 294 311 315 315 320 326 332 342 343 345 349 350 351 353 351 354 352 353
236 237 228 215 214 209 207 196 190 195 201 199 200 204 210 214 223 231 237 243 245 252 264 286 299 307 312 311 307 308 313 320 326 327 331 333 336 335 340 340 340 340 343
232 234 231 219 219 210 205 198 194 198 202 203 208 212 216 223 229 231 232 237 243 245 248 278 314 319 317 317 321 317 313 313 315 317 320 319 321 322 325 327 329 331 332
226 227 232 226 219 212 209 200 198 199 202 205 211 216 221 227 233 236 237 244 237 241 261 294 310 308 306 307 305 309 312 311 308 308 311 314 317 318 319 319 319 318 322
222 223 225 227 223 215 210 206 203 203 207 210 215 220 225 229 236 243 249 240 242 255 274 284 301 307 303 303 302 301 304 306 306 306 308 309 310 310 310 310 310 311 314
218 221 221 224 214 211 207 210 211 210 212 216 222 227 234 240 247 249 247 237 244 259 273 288 296 298 300 299 300 303 306 307 310 311 311 311 309 306 307 307 305 305 307
219 219 216 220 215 211 211 211 214 217 219 224 229 234 238 243 245 249 252 246 249 259 273 279 285 291 293 297 300 305 306 306 306 306 305 304 302 302 302 302 303 305 305
220 219 218 219 215 212 212 217 216 219 224 229 235 239 242 243 244 246 250 252 254 260 267 275 283 286 290 295 300 301 304 306 304 304 304 304 303 303 305 306 306 305 309
220 219 219 220 222 217 215 213 220 223 227 234 238 239 236 238 244 247 249 255 261 265 269 276 279 286 290 294 299 301 303 301 302 306 308 307 306 305 305 306 309 306 303
222 220 223 222 223 223 219 216 217 221 228 233 236 238 242 245 249 251 254 257 261 266 272 275 281 285 291 296 300 301 301 302 305 310 317 321 315 313 311 311 315 308 302
226 224 224 227 228 229 230 228 226 228 231 235 239 241 243 245 253 257 256 258 264 268 272 279 283 288 292 295 298 298 300 307 310 318 320 323 325 325 319 314 313 310 312
229 230 227 226 230 232 233 235 235 234 235 236 239 243 247 251 253 255 259 261 264 269 276 280 285 290 291 292 292 296 302 308 317 320 322 328 327 330 325 317 315 310 309
231 231 230 231 230 231 234 237 237 240 241 244 247 251 252 252 255 259 262 266 268 271 277 281 284 282 283 285 295 299 308 306 312 314 318 322 327 327 324 310 304 293 296
228 234 239 236 232 234 233 234 239 244 246 247 249 251 252 255 258 259 261 265 269 274 278 278 274 277 283 289 293 300 305 306 312 315 316 318 323 326 318 309 300 276 267
221 229 229 232 234 236 236 237 239 241 245 249 251 253 255 257 261 265 266 269 270 268 267 265 271 278 286 290 294 300 302 306 308 309 311 318 322 317 320 296 292 274 256
222 221 225 224 227 228 229 231 237 238 240 243 247 250 254 257 261 260 258 259 259 258 260 265 274 280 283 286 292 296 299 303 308 308 310 313 321 314 312 308 291 275 259
227 218 220 226 226 228 228 229 230 230 234 237 239 240 240 241 242 246 250 253 254 259 264 270 275 279 282 285 289 290 295 300 302 304 308 311 313 310 309 311 300 292 258
233 218 217 221 225 229 228 230 232 234 235 237 239 239 240 242 246 251 255 257 259 262 267 271 274 277 280 283 284 287 291 296 299 301 303 305 309 309 305 307 291 288 260
235 227 217 217 223 228 231 234 237 239 239 239 241 242 245 249 249 252 254 256 259 263 267 270 274 277 279 282 285 288 292 294 296 299 299 300 306 309 307 303 289 270 269
Height
10959 10961 10964 10966 10967 10969 10974 10978 10982 10986 10989 10992 10995 10998 11001 11003 11005 11006 11008 11008 11009 11008 11008 11007 11007 11007 11007 11006 11005 11004 11002 11000 10997 10993 10989 10990 10989 10987 10985 10982 10979 10976 10972
10959 10960 10962 10965 10967 10970 10974 10978 10983 10987 10990 10993 10996 10999 11001 11004 11005 11007 11008 11009 11009 11008 11009 11010 11009 11009 11009 11008 11007 11006 11003 11002 11000 10997 10994 10992 10991 10990 10988 10985 10982 10978 10975
10960 10959 10960 10964 10965 10969 10973 10978 10982 10987 10991 10994 10996 10999 11001 11004 11006 11008 11009 11009 11010 11010 11010 11010 11010 11011 11011 11010 11009 11008 11006 11005 11002 11000 10998 10996 10995 10992 10990 10988 10984 10980 10977
10959 10959 10958 10962 10965 10967 10971 10976 10980 10985 10990 10993 10996 10999 11001 11004 11006 11008 11009 11008 11009 11010 11011 11011 11011 11011 11011 11010 11010 11010 11008 11006 11004 11002 11000 10998 10997 10994 10992 10990 10986 10981 10977
10956 10956 10956 10958 10962 10964 10965 10972 10978 10983 10987 10991 10994 10998 11001 11004 11005 11007 11008 11008 11009 11010 11010 11010 11011 11011 11011 11010 11010 11009 11008 11007 11005 11003 11000 10998 10996 10995 10993 10990 10986 10983 10979
10950 10951 10952 10953 10957 10962 10963 10967 10973 10980 10985 10989 10993 10996 10999 11002 11004 11005 11006 11007 11009 11009 11010 11010 11011 11011 11011 11010 11010 11009 11008 11007 11005 11003 11000 10998 10996 10994 10992 10990 10987 10983 10978
10943 10945 10947 10950 10953 10958 10962 10964 10970 10976 10981 10987 10991 10994 10997 11000 11002 11003 11005 11006 11008 11008 11008 11009 11010 11010 11010 11010 11009 11009 11007 11006 11004 11002 11001 10998 10996 10993 10991 10988 10985 10981 10978
10937 10939 10943 10948 10949 10954 10959 10963 10968 10975 10979 10985 10989 10992 10994 10997 10999 11001 11002 11003 11005 11006 11007 11007 11008 11008 11009 11008 11007 11007 11006 11004 11003 11000 10998 10996 10993 10991 10989 10986 10985 10981 10977
10930 10935 10939 10942 10945 10949 10954 10959 10964 10970 10976 10981 10984 10988 10991 10993 10996 10997 10999 11001 11002 11003 11005 11006 11007 11007 11006 11006 11005 11004 11003 11002 11000 10998 10995 10992 10990 10987 10986 10984 10980 10977 10975
10924 10929 10933 10936 10940 10945 10951 10956 10961 10966 10973 10977 10979 10981 10986 10989 10991 10994 10996 10997 10999 11001 11002 11003 11004 11003 11002 11001 11001 11000 10999 10998 10995 10993 10991 10987 10985 10982 10981 10979 10976 10973 10970
10916 10923 10927 10931 10935 10940 10947 10951 10955 10960 10964 10969 10974 10979 10982 10983 10986 10990 10992 10994 10996 10998 11000 11000 11001 11000 10998 10997 10996 10995 10995 10993 10991 10988 10987 10983 10981 10977 10974 10972 10969 10965 10964
10909 10915 10921 10925 10931 10935 10942 10947 10951 10955 10960 10966 10970 10973 10976 10980 10985 10987 10989 10991 10993 10995 10996 10997 10997 10995 10992 10991 10990 10989 10988 10987 10985 10982 10980 10977 10973 10970 10966 10964 10960 10957 10955
10900 10907 10915 10919 10922 10927 10935 10942 10947 10951 10956 10959 10964 10967 10972 10976 10981 10983 10984 10986 10988 10990 10991 10991 10990 10989 10987 10985 10984 10984 10982 10980 10978 10976 10971 10969 10964 10960 10956 10953 10951 10948 10945
10892 10899 10906 10911 10915 10921 10928 10933 10939 10946 10951 10955 10958 10962 10967 10972 10974 10976 10978 10981 10982 10985 10985 10984 10983 10981 10980 10980 10979 10978 10976 10973 10970 10967 10962 10958 10953 10948 10945 10942 10938 10934 10933
10883 10890 10897 10903 10908 10913 10920 10927 10933 10939 10944 10948 10951 10956 10961 10965 10967 10969 10972 10974 10976 10978 10977 10977 10976 10974 10973 10973 10973 10971 10967 10964 10960 10957 10952 10946 10942 10938 10933 10929 10927 10924 10920
10871 10882 10890 10897 10902 10907 10911 10919 10926 10932 10937 10940 10943 10949 10953 10957 10959 10962 10965 10967 10969 10971 10970 10969 10967 10967 10967 10966 10964 10961 10957 10953 10950 10948 10944 10938 10932 10928 10925 10918 10914 10912 10910
10864 10874 10881 10888 10893 10898 10905 10911 10916 10923 10928 10930 10936 10941 10947 10951 10952 10955 10958 10961 10961 10962 10962 10960 10960 10959 10959 10957 10955 10952 10948 10944 10943 10940 10936 10932 10925 10917 10913 10910 10905 10898 10898
10855 10864 10873 10881 10889 10895 10901 10905 10912 10918 10921 10925 10930 10934 10939 10942 10944 10946 10949 10951 10953 10952 10952 10953 10951 10950 10949 10949 10947 10944 10939 10935 10934 10931 10928 10924 10919 10912 10905 10902 10897 10892 10888
10850 10857 10865 10875 10881 10887 10894 10900 10906 10909 10912 10916 10921 10927 10931 10934 10936 10937 10940 10943 10944 10944 10944 10944 10941 10940 10938 10938 10938 10937 10933 10929 10926 10921 10917 10914 10910 10904 10897 10893 10891 10887 10885
10844 10848 10852 10860 10867 10876 10883 10889 10895 10898 10904 10906 10912 10919 10923 10924 10924 10929 10931 10932 10933 10934 10935 10934 10932 10930 10929 10929 10928 10928 10927 10923 10921 10917 10912 10908 10902 10895 10892 10886 10883 10882 10882
10836 10842 10846 10851 10857 10862 10871 10879 10883 10888 10888 10897 10903 10906 10910 10912 10914 10918 10920 10921 10923 10924 10924 10923 10922 10920 10919 10919 10918 10918 10918 10916 10915 10910 10906 10903 10900 10894 10886 10881 10878 10876 10875
10827 10832 10838 10842 10846 10852 10859 10864 10871 10875 10881 10888 10889 10892 10897 10900 10903 10905 10907 10910 10913 10913 10913 10914 10914 10912 10909 10908 10907 10906 10906 10905 10905 10901 10899 10897 10893 10887 10881 10876 10872 10869 10869
10819 10825 10827 10833 10838 10845 10848 10852 10858 10863 10868 10872 10875 10879 10883 10887 10891 10893 10896 10899 10901 10902 10903 10904 10903 10902 10901 10900 10898 10896 10892 10890 10889 10887 10886 10886 10885 10880 10874 10869 10864 10863 10861
10805 10810 10817 10824 10832 10833 10840 10845 10847 10850 10855 10859 10863 10867 10871 10875 10879 10882 10885 10888 10889 10891 10892 10894 10894 10894 10892 10890 10889 10886 10882 10878 10876 10875 10871 10870 10869 10869 10866 10863 10857 10855 10851
10787 10798 10805 10814 10819 10823 10828 10832 10835 10840 10846 10849 10853 10856 10860 10864 10867 10870 10873 10875 10877 10879 10881 10882 10882 10881 10879 10877 10876 10874 10873 10869 10863 10861 10860 10856 10855 10852 10850 10850 10848 10843 10839
10774 10785 10795 10805 10809 10811 10816 10822 10824 10829 10833 10837 10842 10845 10848 10851 10854 10858 10861 10862 10863 10866 10868 10868 10868 10865 10865 10863 10862 10861 10860 10858 10855 10848 10844 10844 10840 10836 10833 10831 10829 10826 10824